EHI
0 0 0 0 0 0 0 0 0 0 0 0 0 0 0 0 0 0 1 2 3 2 1 0 0 0 0 0 0 0 0 0 0 0 0 0 0 0 0 0 0 0 0
1 1 1 0 0 0 0 0 0 0 0 0 0 0 0 0 0 0 0 1 2 2 1 0 0 0 0 0 0 0 0 0 0 0 0 0 0 0 0 0 0 0 0
2 2 1 0 0 0 0 0 0 0 0 0 0 0 0 0 0 0 0 0 1 1 1 1 0 0 0 0 0 0 0 0 0 0 0 0 0 0 0 0 0 0 0
3 2 1 0 0 0 0 0 0 0 0 0 0 0 0 0 0 0 0 0 0 0 0 1 2 2 1 1 1 1 1 0 0 0 0 0 0 0 0 0 0 0 0
3 2 0 0 0 0 0 0 0 0 0 0 0 0 0 0 0 0 0 0 0 0 0 1 2 3 3 3 3 2 2 1 0 0 0 0 0 0 0 0 0 0 0
7 4 1 0 0 0 0 0 0 0 0 0 0 0 0 0 0 0 0 0 0 0 0 0 1 3 4 4 4 3 2 1 0 0 0 0 0 0 0 0 0 0 0
12 10 5 1 0 0 0 0 0 0 0 0 0 0 0 0 0 0 0 0 0 0 0 0 0 1 2 3 4 3 2 1 0 0 0 0 0 0 0 0 0 0 0
16 13 7 3 1 0 0 0 0 0 0 0 0 0 0 0 0 0 0 0 0 0 0 0 0 0 0 1 2 2 1 1 0 0 0 0 0 0 0 0 0 0 0
15 12 7 4 2 0 0 0 0 0 0 0 0 0 0 0 0 0 0 0 0 0 0 0 0 1 1 0 0 1 1 1 1 2 1 1 0 0 0 0 0 0 0
14 12 9 5 2 1 1 1 1 1 0 0 0 0 0 0 0 0 0 0 0 0 0 0 1 2 2 1 0 0 0 1 2 3 3 2 1 1 1 0 0 0 0
14 14 11 7 4 3 3 2 2 2 1 1 1 0 0 0 0 0 0 0 0 0 0 0 1 2 2 1 0 0 0 1 2 4 4 5 4 2 1 0 0 0 0
14 14 12 10 6 4 4 3 3 3 3 2 2 1 0 0 0 0 0 0 0 0 0 0 0 1 1 0 0 0 0 0 1 1 3 5 5 2 1 0 0 0 0
14 14 14 12 8 5 4 3 3 3 3 3 3 2 1 0 0 0 0 0 0 0 0 0 0 0 0 0 0 0 0 0 0 0 1 2 2 1 0 0 0 0 0
12 13 14 12 9 6 4 4 3 3 3 3 3 3 2 1 0 0 0 0 0 0 0 0 0 0 0 0 0 0 0 0 0 0 0 0 0 0 0 0 0 0 0
7 8 10 9 7 5 4 3 3 3 3 3 3 3 3 2 1 1 0 0 0 0 0 0 0 0 0 0 0 0 0 0 0 0 0 0 0 0 0 0 0 0 0
2 3 4 5 4 3 3 3 3 2 2 2 2 2 2 2 2 1 0 0 0 0 0 0 0 0 0 0 0 0 0 0 0 0 0 0 0 0 0 0 0 0 0
1 2 2 3 3 3 3 3 2 1 1 1 1 1 1 1 1 1 0 0 0 0 0 0 0 0 0 0 0 0 0 0 0 0 0 0 0 0 0 0 0 0 0
2 2 1 2 2 3 3 3 2 1 1 1 1 0 0 0 0 0 0 0 0 0 0 0 0 0 0 0 0 0 0 0 0 0 0 0 0 0 0 0 0 0 0
2 2 1 1 1 1 2 2 2 2 2 2 2 1 0 0 0 0 0 0 0 0 0 0 0 0 0 0 0 0 0 0 0 0 0 0 0 0 0 0 0 0 0
4 3 2 1 0 0 1 1 1 2 2 2 2 1 0 0 0 0 0 0 0 0 0 0 0 0 0 0 0 0 0 0 0 0 0 0 0 0 0 0 0 0 0
6 4 3 2 1 0 0 0 0 1 1 1 1 0 0 0 0 0 0 0 0 0 0 0 0 0 0 0 0 0 0 0 0 0 0 0 0 0 0 0 0 0 0
6 5 3 2 1 0 0 0 0 0 0 0 0 0 0 0 0 0 0 0 0 0 0 0 0 0 0 0 0 0 0 0 0 0 0 0 0 0 0 0 0 0 0
5 3 2 1 1 0 0 0 0 0 0 0 0 0 0 0 0 0 0 0 0 0 0 0 0 0 0 0 0 0 0 0 0 0 0 0 0 0 0 0 0 0 0
3 2 1 1 0 0 0 0 0 0 0 0 0 0 0 0 0 0 0 0 0 0 0 0 0 0 0 0 0 0 0 0 0 0 0 0 0 0 0 0 0 0 0
2 1 1 1 0 0 0 0 0 0 0 0 0 0 0 0 0 0 0 0 0 0 0 0 0 0 0 0 0 0 0 0 0 0 0 0 0 0 0 0 0 0 0
1 0 0 0 0 0 0 0 0 0 0 0 0 0 0 0 0 0 0 0 0 0 0 0 0 0 0 0 0 0 0 0 0 0 0 0 0 0 0 0 0 0 0
Wind_Speed
4 4 3 2 2 2 2 2 2 2 1 1 3 6 5 6 6 4 4 12 11 10 11 11 10 10 9 8 8 8 8 8 7 7 7 7 7 7 7 7 6 6 5
5 4 4 3 3 3 3 3 3 2 1 1 3 5 6 6 5 5 4 7 11 10 10 11 11 10 10 9 9 8 8 8 7 7 7 7 7 6 7 7 7 6 6
6 5 4 4 3 3 3 2 2 1 1 1 3 4 5 6 6 6 5 4 5 9 11 11 11 11 11 10 10 9 9 8 8 7 7 7 7 6 6 6 7 7 6
7 5 4 4 4 3 3 3 2 2 1 1 1 2 3 4 6 6 5 5 4 5 8 12 11 11 11 11 11 11 10 10 9 9 8 8 8 7 7 7 7 7 7
7 5 4 3 4 3 3 3 2 2 2 1 1 2 2 3 5 6 6 6 6 5 5 8 11 11 13 12 12 12 11 11 11 10 10 9 9 8 8 7 7 7 7
7 5 4 4 4 3 3 2 3 2 2 2 1 1 1 2 3 4 6 6 6 7 6 6 6 8 13 12 12 13 13 12 12 11 11 11 10 9 9 8 8 8 8
7 6 4 4 4 4 4 4 3 3 1 1 2 1 2 1 2 3 4 4 6 7 6 7 6 5 5 11 12 12 13 13 13 13 12 11 11 10 10 10 9 9 9
7 7 5 5 5 4 4 4 3 3 1 2 3 2 1 3 3 2 3 4 5 5 6 9 7 7 5 4 7 13 13 14 14 14 13 12 11 11 11 11 10 10 10
7 6 7 6 5 5 5 5 5 5 3 2 2 4 3 3 2 2 3 3 4 4 5 5 8 8 8 6 6 10 14 13 14 15 14 13 12 11 11 11 11 11 10
7 7 7 7 6 5 5 5 5 4 4 3 1 1 3 4 3 2 3 2 4 5 5 5 6 7 8 6 8 11 14 14 14 15 14 14 13 12 12 12 12 12 12
6 7 7 6 6 5 6 6 5 5 4 4 3 2 1 1 2 2 2 3 2 3 4 5 4 5 7 7 6 10 14 14 14 14 14 13 13 13 13 13 13 13 13
5 7 7 7 6 5 6 6 5 6 5 5 4 3 3 3 3 3 3 3 3 3 3 4 4 5 5 5 9 12 13 13 14 14 13 13 14 13 14 14 14 14 13
5 7 7 6 6 6 6 6 6 6 6 6 5 4 4 4 3 3 3 3 3 3 2 3 4 4 5 4 6 11 12 13 13 13 13 13 13 13 13 13 14 14 14
6 7 7 7 7 6 7 6 5 6 5 6 7 5 4 4 4 4 4 3 2 2 2 4 2 3 4 4 7 11 8 13 13 13 13 13 13 12 12 12 12 12 12
6 7 7 7 7 7 7 6 5 6 5 6 6 6 4 4 3 3 3 4 4 3 4 4 3 2 3 3 6 6 6 10 13 13 13 13 13 13 12 12 12 12 11
7 7 7 7 7 7 7 6 5 6 6 6 5 5 5 3 3 3 3 3 4 4 4 4 4 3 2 3 4 4 6 9 11 12 13 13 13 13 13 13 12 12 12
7 7 7 7 7 7 7 6 6 6 7 6 5 5 6 5 3 3 3 2 3 3 4 3 2 2 1 1 1 2 3 3 4 10 11 12 12 12 12 12 12 12 12
6 6 6 6 6 6 6 6 7 6 6 6 6 6 6 5 5 4 3 3 3 3 4 4 2 1 2 1 1 1 2 2 3 6 9 10 11 12 12 12 12 12 12
4 4 5 5 5 5 5 5 6 6 6 6 6 6 6 5 5 4 3 3 3 3 3 3 2 1 1 1 0 1 1 1 2 2 4 6 8 9 10 10 11 11 11
4 4 4 4 4 3 4 4 5 5 5 5 5 5 6 6 6 5 4 4 3 2 2 2 1 1 1 1 1 0 1 1 1 2 2 2 2 4 5 7 8 9 9
3 3 3 3 2 2 3 3 4 4 4 3 3 4 4 4 5 4 3 3 3 2 2 1 1 0 0 1 1 1 1 1 2 1 2 2 1 1 2 3 5 6 6
3 3 3 3 2 1 1 2 2 2 2 2 1 1 1 1 2 3 3 3 3 3 3 2 1 1 1 1 1 1 1 1 2 2 1 2 1 2 2 1 2 2 3
4 3 3 3 2 2 3 2 2 2 2 1 1 1 0 0 2 3 4 5 4 3 3 3 3 1 1 1 0 1 0 0 1 2 1 2 2 2 2 3 3 3 3
4 4 4 4 4 4 4 3 3 3 3 3 2 1 1 1 2 3 4 4 4 4 3 2 2 1 1 1 0 0 1 1 1 2 2 1 2 2 3 2 4 4 5
5 5 4 4 4 4 6 6 5 3 4 4 4 4 3 3 4 5 5 5 5 4 5 6 5 4 5 4 3 2 2 2 2 2 2 1 2 2 2 2 3 5 5
6 6 6 5 5 4 6 6 5 3 4 4 4 5 7 6 6 6 5 5 5 3 3 5 5 6 5 6 6 3 1 1 1 2 3 1 2 2 3 2 2 3 3
Wind_Direction
160 164 166 169 176 171 173 181 212 242 244 182 144 143 143 146 152 155 160 167 167 167 167 168 169 170 169 170 171 170 168 166 166 166 167 167 167 167 165 163 163 161 158
167 168 172 178 189 189 183 180 188 187 182 150 143 149 148 147 156 159 162 173 177 178 179 179 180 181 182 183 183 183 180 179 176 178 180 181 179 179 180 181 179 176 174
169 170 171 180 193 186 174 164 167 146 144 138 140 152 153 157 164 169 171 175 182 188 189 190 191 192 193 194 195 195 193 193 190 191 193 192 192 193 194 195 193 192 191
167 166 168 180 180 164 157 156 150 136 133 138 148 160 161 165 171 177 179 184 186 192 199 201 201 201 203 203 204 204 203 201 200 202 202 203 204 204 204 206 205 204 204
166 162 171 178 169 161 162 173 154 148 152 162 175 167 172 176 180 184 190 195 198 198 198 208 208 209 212 213 212 211 210 209 209 210 211 212 214 212 211 213 214 215 215
168 163 171 177 166 156 164 166 155 149 153 164 165 150 202 200 190 191 198 198 203 206 204 207 209 216 219 220 219 219 218 216 215 216 218 219 220 218 217 219 221 223 223
169 166 172 170 167 169 176 169 151 150 160 136 94 22 340 289 217 206 204 199 206 209 204 208 210 211 220 223 223 224 224 223 220 220 222 224 224 222 220 222 224 226 227
172 174 170 174 173 169 173 170 153 149 176 156 140 116 355 334 312 234 211 206 210 208 210 213 214 212 215 213 222 225 227 228 225 224 225 225 225 223 223 225 226 226 228
179 179 176 174 176 174 180 182 169 161 175 198 164 149 157 216 275 298 243 218 208 209 215 212 214 215 213 213 217 225 227 228 229 228 227 225 223 222 224 227 228 227 228
183 183 179 176 181 182 183 189 182 169 160 183 205 197 177 164 167 272 303 261 226 219 217 221 220 217 213 212 217 220 226 227 228 230 229 225 223 223 224 227 231 232 231
191 187 185 183 186 188 192 192 182 178 173 177 183 184 181 173 163 163 245 283 284 244 221 220 221 218 215 211 214 222 224 223 225 228 230 228 226 225 225 229 233 235 235
196 195 194 191 191 192 195 195 190 186 189 187 187 183 176 179 194 181 206 239 254 264 239 226 224 221 215 210 219 223 223 220 221 224 226 227 227 226 226 229 233 236 237
201 204 201 196 196 198 195 192 194 198 195 193 198 202 200 206 184 178 184 218 243 270 274 250 231 224 220 207 217 222 222 219 220 222 225 226 227 227 227 228 232 236 238
205 200 200 200 199 198 201 196 201 205 199 203 211 205 205 214 200 187 182 177 222 281 282 266 267 231 225 211 216 216 221 217 218 221 225 228 228 228 228 229 232 235 237
203 200 199 201 202 203 204 197 207 211 202 207 212 209 212 217 208 207 196 180 178 218 257 261 262 257 231 216 217 212 217 218 217 221 223 225 227 228 229 230 231 233 235
202 197 201 201 204 206 207 205 210 211 208 214 212 208 215 219 217 213 206 196 186 191 229 244 241 251 251 237 215 209 219 223 223 225 226 227 228 229 229 230 231 232 233
197 199 201 199 203 208 209 209 214 209 211 216 218 215 223 217 219 224 211 199 198 184 219 257 252 259 251 259 256 233 230 226 234 231 231 232 232 233 234 234 234 234 234
195 194 194 195 200 202 201 201 209 207 206 210 216 216 225 219 218 220 210 211 213 204 201 238 259 258 251 252 243 241 246 230 237 240 236 236 236 237 238 239 240 240 239
178 179 180 187 196 201 202 205 202 205 209 213 214 213 219 214 222 221 211 214 218 217 197 206 242 249 266 292 350 304 292 312 269 270 251 246 250 251 249 247 244 244 244
160 169 174 180 188 192 199 198 197 205 211 217 220 218 217 212 216 213 213 217 207 195 190 198 222 268 303 319 60 323 328 325 305 322 323 302 279 274 268 256 247 243 242
142 148 151 157 166 183 207 197 196 198 203 211 222 222 219 203 197 194 198 202 191 181 175 177 187 126 335 9 320 287 274 295 299 315 322 316 304 298 285 265 253 249 246
119 118 127 127 128 175 153 161 166 168 168 176 202 231 220 196 174 155 147 139 144 164 179 173 168 170 237 255 290 316 326 350 313 325 339 312 329 315 307 305 306 283 275
110 109 113 110 97 65 77 93 111 117 110 129 152 162 172 101 139 129 104 93 85 94 131 156 147 177 215 277 321 338 324 249 258 292 338 313 338 327 332 2 10 349 324
108 104 97 95 89 66 67 87 101 98 87 76 72 95 118 79 94 119 112 95 79 64 77 99 114 107 87 53 101 243 262 285 300 340 24 338 338 329 343 357 8 8 0
97 91 85 83 82 61 60 77 90 91 80 65 56 57 80 85 79 105 112 105 87 63 63 76 82 71 57 49 62 63 37 33 346 339 0 24 326 318 320 325 345 353 347
98 92 78 67 70 64 61 72 83 92 88 73 58 52 57 70 74 85 102 104 95 70 62 60 54 41 36 33 39 57 66 58 13 337 336 6 336 350 337 324 334 339 339